Location: Moondance
(40.1328°N, 106.5113°W)
Time: 20:24:31
(UTC-06:00)

Envisat - Visible Passes

Search period start: 22 July 2018 00:00
Search period end: 01 August 2018 00:00
Orbit: 764 x 766 km, 98.2° (Epoch: 22 July)

Date Brightness Start Highest point End Pass type
(mag) Time Alt. Az. Time Alt. Az. Time Alt. Az.
22 Jul 5.2 21:14:35 10° SSW 21:18:43 25° W 21:22:53 10° NW visible
24 Jul 5.7 21:41:56 10° WSW 21:44:33 14° W 21:47:10 10° WNW visible
25 Jul 4.8 21:02:59 10° SSW 21:07:29 32° W 21:12:00 10° NNW visible
27 Jul 5.6 21:29:50 10° SW 21:33:15 18° W 21:36:42 10° NW visible
28 Jul 4.4 20:51:31 10° SSW 20:56:16 40° W 21:01:02 10° NNW visible
30 Jul 5.3 21:18:02 10° SW 21:21:59 23° W 21:25:58 10° NW visible
